Regional Weather Roundup
Issued by NWS Goodland, KS

Home | Current Version | Previous Version | Graphics & Text | Print | Product List | Glossary On
Versions: 1 2 3 4 5 6 7 8 9 10 11 12 13 14 15 16 17 18 19 20 21 22 23 24 25 26 27 28 29 30 31 32 33 34 35 36 37 38 39 40 41 42 43 44 45 46 47 48 49 50
000
ASUS43 KGLD 250659
RWRGLD

GOODLAND FORECAST AREA HOURLY WEATHER ROUNDUP
NATIONAL WEATHER SERVICE GOODLAND KS
100 AM MDT SAT APR 25 2015

...OFFICIAL OBSERVATIONS...

CITY           SKY/WX    TMP DP  RH WIND       PRES   REMARKS
GOODLAND KS    CLOUDY    50  42  74 NW14      29.62R
HILL CITY KS   CLOUDY    55  51  86 W6        29.54R
IMPERIAL NEB   CLOUDY    50  43  77 W7        29.60R
MCCOOK NEB     CLOUDY    54  47  77 N5        29.55R
AKRON CO       CLOUDY    46  38  73 W8        29.66R
BURLINGTON CO  MOCLDY    49  39  68 W12       29.64S
LIMON CO       CLEAR     40  36  86 W10       29.72S
$$

...UNOFFICIAL OBSERVATIONS...

CITY           SKY/WX    TMP DP  RH WIND       PRES   REMARKS
COLBY KS       CLEAR     54  46  76 W12       29.58R
GOVE KS          N/A     53  32  45 MISG        N/A
LENORA KS        N/A     51  32  48 MISG        N/A
NORTON KS      HVY RAIN  52  48  87 N16       29.56R
SHARON SPRINGS   N/A     49  44  83 NW8         N/A
KIT CARSON CO    N/A     47  41  81 MISG        N/A
YUMA CO          N/A     50  38  64 W9          N/A
$$



USA.gov is the U.S. government's official web portal to all federal, state and local government web resources and services.